| time (UTC) | temp F | wind direction | speed MPH | gust MPH | rain 1hr in | rain 24hr in | rain mn in | humidity % | barometer mb |
| 20260502211535 | 74 | 323 | 3.0 | 7.0 | 0.00 | 0.00 | 0.00 | 52 | 1014.2 |
| 20260502204534 | 70 | 304 | 2.0 | 6.0 | 0.00 | 0.00 | 0.00 | 56 | 1014.5 |
| 20260502203035 | 70 | 293 | 4.0 | 9.0 | 0.00 | 0.00 | 0.00 | 56 | 1014.5 |
| 20260502201535 | 72 | 307 | 3.0 | 7.0 | 0.00 | 0.00 | 0.00 | 55 | 1014.6 |
| 20260502200035 | 71 | 107 | 1.0 | 7.0 | 0.00 | 0.00 | 0.00 | 54 | 1014.7 |
| 20260502194534 | 68 | 217 | 2.0 | 6.0 | 0.00 | 0.00 | 0.00 | 61 | 1015.0 |
| 20260502191610 | 64 | 63 | 1.0 | 6.0 | 0.00 | 0.00 | 0.00 | 68 | 1015.4 |
| 20260502184534 | 65 | 337 | 0.0 | 3.0 | 0.00 | 0.00 | 0.00 | 63 | 1016.1 |
| 20260502183034 | 66 | 335 | 2.0 | 6.0 | 0.00 | 0.00 | 0.00 | 62 | 1016.1 |
| 20260502181535 | 66 | 258 | 0.0 | 1.0 | 0.00 | 0.00 | 0.00 | 61 | 1016.1 |
| 20260502163034 | 58 | 136 | 1.0 | 5.0 | 0.00 | 0.00 | 0.00 | 79 | 1015.8 |
| 20260502160141 | 56 | 315 | 2.0 | 4.0 | 0.00 | 0.00 | 0.00 | 83 | 1015.8 |
| 20260502151535 | 54 | 125 | 0.0 | 2.0 | 0.00 | 0.00 | 0.00 | 89 | 1015.6 |
| 20260502123151 | 50 | 186 | 2.0 | 3.0 | 0.00 | 0.00 | 0.00 | 87 | 1014.5 |
| 20260502121534 | 51 | 202 | 1.0 | 2.0 | 0.00 | 0.00 | 0.00 | 86 | 1014.6 |
| 20260502113036 | 53 | 166 | 2.0 | 4.0 | 0.00 | 0.00 | 0.00 | 85 | 1014.9 |
| 20260502111529 | 52 | 146 | 3.0 | 5.0 | 0.00 | 0.00 | 0.00 | 86 | 1014.9 |
| 20260502110039 | 52 | 177 | 1.0 | 4.0 | 0.00 | 0.00 | 0.00 | 85 | 1014.9 |
| 20260502104535 | 53 | 230 | 2.0 | 5.0 | 0.00 | 0.00 | 0.00 | 85 | 1015.0 |
| 20260502103036 | 53 | 167 | 2.0 | 4.0 | 0.00 | 0.00 | 0.00 | 85 | 1015.2 |
| 20260502101533 | 52 | 157 | 2.0 | 3.0 | 0.00 | 0.00 | 0.00 | 85 | 1015.3 |
| 20260502070036 | 54 | 157 | 3.0 | 5.0 | 0.00 | 0.00 | 0.00 | 82 | 1015.8 |
| 20260502063110 | 55 | 157 | 0.0 | 1.0 | 0.00 | 0.00 | 0.00 | 79 | 1015.8 |
| 20260502060153 | 57 | 157 | 3.0 | 4.0 | 0.00 | 0.00 | 0.00 | 78 | 1015.7 |
| 20260502060144 | 57 | 175 | 3.0 | 4.0 | 0.00 | 0.00 | 0.00 | 76 | 1015.6 |
| 20260502050034 | 60 | 308 | 2.0 | 4.0 | 0.00 | 0.00 | 0.00 | 69 | 1015.4 |
| 20260502044534 | 60 | 52 | 3.0 | 5.0 | 0.00 | 0.00 | 0.00 | 68 | 1015.1 |
| 20260502041535 | 62 | 51 | 4.0 | 6.0 | 0.00 | 0.00 | 0.00 | 67 | 1014.8 |
| 20260502040039 | 62 | 18 | 3.0 | 6.0 | 0.00 | 0.00 | 0.00 | 66 | 1014.6 |
| 20260502034535 | 63 | 302 | 3.0 | 7.0 | 0.00 | 0.00 | 0.00 | 63 | 1014.4 |
| 20260502033031 | 64 | 66 | 4.0 | 6.0 | 0.00 | 0.00 | 0.00 | 61 | 1014.5 |
| 20260502030035 | 66 | 60 | 3.0 | 6.0 | 0.00 | 0.00 | 0.00 | 57 | 1014.3 |
| 20260502024537 | 68 | 272 | 1.0 | 7.0 | 0.00 | 0.00 | 0.00 | 54 | 1013.9 |
| 20260502023034 | 69 | 269 | 5.0 | 10.0 | 0.00 | 0.00 | 0.00 | 51 | 1013.4 |
| 20260502021533 | 70 | 294 | 2.0 | 7.0 | 0.00 | 0.00 | 0.00 | 54 | 1013.3 |
| 20260502020033 | 71 | 292 | 0.0 | 0.0 | 0.00 | 0.00 | 0.00 | 50 | 1013.3 |
| 20260502013035 | 73 | 295 | 0.0 | 4.0 | 0.00 | 0.00 | 0.00 | 41 | 1013.2 |
| 20260502011606 | 74 | 291 | 2.0 | 4.0 | 0.00 | 0.00 | 0.00 | 39 | 1013.2 |
| 20260502010035 | 75 | 317 | 1.0 | 6.0 | 0.00 | 0.00 | 0.00 | 38 | 1013.2 |
| 20260502004641 | 76 | 342 | 2.0 | 9.0 | 0.00 | 0.00 | 0.00 | 37 | 1013.3 |
| 20260502003035 | 77 | 1 | 0.0 | 4.0 | 0.00 | 0.00 | 0.00 | 36 | 1013.4 |
| 20260502001537 | 78 | 38 | 2.0 | 7.0 | 0.00 | 0.00 | 0.00 | 37 | 1013.4 |
| 20260501234536 | 73 | 22 | 4.0 | 9.0 | 0.00 | 0.00 | 0.00 | 41 | 1013.8 |
| 20260501233106 | 73 | 20 | 6.0 | 9.0 | 0.00 | 0.00 | 0.00 | 41 | 1013.8 |
| 20260501231530 | 76 | 16 | 2.0 | 11.0 | 0.00 | 0.00 | 0.00 | 39 | 1014.1 |
| 20260501230035 | 76 | 22 | 5.0 | 9.0 | 0.00 | 0.00 | 0.00 | 40 | 1014.3 |
| 20260501224606 | 76 | 17 | 3.0 | 10.0 | 0.00 | 0.00 | 0.00 | 40 | 1014.5 |
| 20260501221535 | 75 | 55 | 4.0 | 10.0 | 0.00 | 0.00 | 0.00 | 41 | 1014.9 |
| 20260501220038 | 74 | 10 | 5.0 | 11.0 | 0.00 | 0.00 | 0.00 | 42 | 1015.1 |
| 20260501214532 | 74 | 4 | 3.0 | 7.0 | 0.00 | 0.00 | 0.00 | 43 | 1015.2 |
| 20260501213036 | 74 | 22 | 4.0 | 10.0 | 0.00 | 0.00 | 0.00 | 44 | 1015.4 |